ROMMA est une association bénévole à but non lucratif. Votre soutien est indispensable : ADHERER à ROMMA ou FAIRE un DON

Voiron - (38, Isère)

Voironnais (300 m)   Longitude: 05° 35' E   Latitude: 45° 23' N Station partenaire n°109
 

Détail journalier du     <<     >>

Température Precipitation Humidité Pression Vent Dir Rafale Dir. rafale Ensol.
Heure (°C) (mm) (%) (hPa) (km/h) (km/h) (min)
01:00 14.5091102103SSO0
02:00 13.909210211SSO5O0
03:00 13.609310211ONO5NO0
04:00 14.209410201NO5NO0
05:00 14.3093102003NO0
06:00 15.1093102003NO0
07:00 15.409110192NO8SO0
08:00 15.309110193S13S0
09:00 15.608910205S13SSO0
10:00 16.008710206SSE15SO0
11:00 16.908210216SSO18S30
12:00 17.707910206SSO18S0
13:00 19.807310206S18S30
14:00 21.106810196SSO16SSO60
15:00 22.3062101910SSO24SSO60
16:00 22.8057101811SSO26SO60
17:00 22.7060101810SSO26SO60
18:00 22.306110184SO15O60
19:00 20.706710183S11SO30
20:00 18.007710181S6SSE0
21:00 16.6082101905OSO0
22:00 15.6084101905OSO0
23:00 15.0086102005O0
minuit 15.508810201O5O0

Graphique du 13-10-2019

 

Serveur OMMA